Regional Weather Roundup
Issued by NWS Glasgow, MT

Home | Current Version | Previous Version | Text Only | Print | Product List | Glossary On
Versions: 1 2 3 4 5 6 7 8 9 10 11 12 13 14 15 16 17 18 19 20 21 22 23 24 25 26 27
000
ASUS45 KGGW 302015
RWRGGW
HOURLY REGIONAL WEATHER ROUNDUP FOR NORTHEAST MONTANA
NATIONAL WEATHER SERVICE GLASGOW MONTANA
200 PM MDT THU MAR 30 2017

NOTE: "FAIR" INDICATES FEW OR NO CLOUDS BELOW 12,000 FEET WITH NO
SIGNIFICANT WEATHER AND/OR OBSTRUCTIONS TO VISISBILITY.

NORTHEAST MONTANA


CITY           SKY/WX    TMP DP  RH WIND       PRES   REMARKS
GLASGOW        CLOUDY    63  32  31 N9        29.69S
PLENTYWOOD       N/A     65  33  30 SE8G16      N/A
WOLF POINT     MOSUNNY   67  35  30 MISG      29.66F
JORDAN           N/A     57  37  47 N7        29.71R
WINNETT          N/A     55  35  47 SE3         N/A
SIDNEY         PTSUNNY   66  36  32 CALM      29.66F
GLENDIVE       CLOUDY    60  38  43 SE8       29.69
MALTA            N/A     63  30  29 N5          N/A
SCOBEY           N/A     63  31  30 CALM      29.69R

FORT PECK REPORTS


CITY           SKY/WX    TMP DP  RH WIND       PRES   REMARKS
FORT PECK        N/A     53  36  52 S6          N/A
THE PINES        N/A     55  35  47 CALM        N/A

SOUTHEAST MONTANA


CITY           SKY/WX    TMP DP  RH WIND       PRES   REMARKS
BILLINGS       CLOUDY    48  42  80 N10       29.74S
MILES CITY     LGT RAIN  55  43  63 SW12      29.70R
BAKER          LGT RAIN  53  43  68 S7        29.71R
LIVINGSTON     CLOUDY    50  36  58 E8        29.72F

CENTRAL MONTANA


CITY           SKY/WX    TMP DP  RH WIND       PRES   REMARKS
HAVRE          MOSUNNY   61  33  35 CALM      29.70S
LEWISTOWN      CLOUDY    50  33  52 CALM      29.73F
GREAT FALLS    PTSUNNY   59  27  29 MISG      29.71S
CUT BANK       SUNNY     55  23  28 W16G26    29.73R
HELENA         CLOUDY    58  28  32 VRB6      29.71F
BUTTE          CLOUDY    45  30  55 S6        29.73S
BOZEMAN        CLOUDY    50  38  63 N3        29.71F

WESTERN MONTANA


CITY           SKY/WX    TMP DP  RH WIND       PRES   REMARKS
MISSOULA       PTSUNNY   52  29  41 NW15      29.81S
KALISPELL      NOT AVBL

NORTH DAKOTA


CITY           SKY/WX    TMP DP  RH WIND       PRES   REMARKS
WILLISTON      CLOUDY    63  41  44 SE9       29.69S
DICKINSON      CLOUDY    54  35  48 S17G25    29.71S
MINOT          CLOUDY    55  38  52 S14       29.75F
BISMARCK       CLOUDY    56  36  47 S16       29.80F

SOUTHERN SASKATCHEWAN


CITY           SKY/WX    TMP DP  RH WIND       PRES   REMARKS
REGINA         PTSUNNY   59  30  33 SE8       29.73R
MOOSE JAW      PTSUNNY   61  34  36 E7G17     29.72R
ESTEVAN        PTSUNNY   57  36  44 E17       29.73S
SWIFT CURRENT  SUNNY     57  32  38 N3        29.69R





USA.gov is the U.S. government's official web portal to all federal, state and local government web resources and services.